Home   Weather   Bordeaux   Past weeks

Flag for France Past Weather in Bordeaux, Aquitaine, France — Yesterday and Last 2 Weeks

Now
39 °F

Fog.


Feels Like: 39 °F
Forecast: 39 / 56 °F
Wind: No wind

Location: Bordeaux / Merignac

Current Time: Dec 7, 2016 at 10:02:09 am

Latest Report: Dec 7, 2016 at 9:00 am


Visibility: 2 mi

Pressure: 30.39 "Hg

Humidity: 100%

Dew Point: 39 °F

Location of BordeauxLocation

Past Weather in Bordeaux — Graph

°F

Bordeaux Temperature Yesterday

Maximum temperature yesterday: 61 °F (at 2:30 pm)
Minimum temperature yesterday: 43 °F (at 2:30 am)
Average temperature yesterday: 49 °F

High & Low Weather Summary for the Past Weeks

 TemperatureHumidityPressure
High63 °F (Nov 27, 3:30 pm)100% (Nov 23, 2:30 am)30.45 "Hg (Nov 23, 2:30 am)
Low28 °F (Dec 2, 5:30 am)51% (Dec 2, 3:00 pm)29.53 "Hg (Nov 24, 12:00 am)
Average47 °F85%30.03 "Hg
* Reported Nov 22 9:00 am — Dec 7 9:00 am, Bordeaux, Weather by CustomWeather, © 2016

Note: Actual official high and low records may vary slightly from our data, if they occured in-between our weather recording intervals... More about our weather records

Advertising

Bordeaux Weather History for the Previous 24 Hours

Scroll right to see more
 ConditionsComfort  
Time TempWeatherWind HumidityBarometerVisibility
9:00 am
Wed, Dec 7
39 °FFog.No wind100%30.39 "Hg2 mi
8:30 am39 °FLight fog.3 mph93%30.39 "Hg2 mi
8:00 am39 °FLight fog.3 mph93%30.39 "Hg2 mi
7:30 am39 °FLight fog.3 mph100%30.39 "Hg2 mi
7:00 am41 °FLight fog.6 mph93%30.36 "Hg2 mi
6:30 am39 °FLight fog.6 mph100%30.36 "Hg2 mi
6:00 am39 °FLight fog.2 mph100%30.39 "Hg1 mi
5:30 am39 °FLight fog.No wind93%30.39 "Hg1 mi
5:00 am39 °FLight fog.3 mph93%30.39 "Hg1 mi
4:30 am39 °FFog.2 mph93%30.39 "Hg1 mi
4:00 am39 °FFog.No wind93%30.39 "Hg1 mi
3:30 am39 °FFog.No wind93%30.39 "Hg1 mi
3:00 am41 °FLight fog.1 mph93%30.39 "Hg1 mi
2:30 am43 °FLight fog.No wind93%30.39 "Hg1 mi
2:00 am43 °FFog.3 mph100%30.39 "Hg2 mi
1:30 am41 °FLight fog.5 mph93%30.39 "Hg2 mi
12:30 am41 °FLight fog.1 mph93%30.39 "Hg1 mi
12:00 am41 °FLight fog.2 mph93%30.39 "Hg2 mi
11:30 pm
Tue, Dec 6
43 °FFog.No wind93%30.39 "Hg1 mi
11:00 pm43 °FLight fog.No wind87%30.39 "Hg2 mi
10:30 pm45 °FLight fog.No wind93%30.39 "Hg2 mi
9:30 pm46 °FClear.2 mph87%30.39 "Hg4 mi
9:00 pm48 °FClear.3 mph87%30.39 "Hg5 mi
8:30 pm46 °FClear.6 mph93%30.39 "Hg6 mi
8:00 pm48 °FClear.3 mph87%30.39 "Hg10 mi
7:00 pm52 °FClear.2 mph82%30.36 "Hg10 mi
6:30 pm54 °FClear.6 mph77%30.36 "Hg10 mi
6:00 pm54 °FClear.6 mph77%30.33 "Hg10 mi
5:30 pm55 °FClear.3 mph72%30.36 "Hg10 mi
5:00 pm57 °FSunny.3 mph67%30.36 "Hg10 mi
4:30 pm57 °FSunny.5 mph67%30.36 "Hg10 mi
4:00 pm59 °FSunny.6 mph63%30.33 "Hg10 mi
3:30 pm61 °FPassing clouds.6 mph59%30.33 "HgN/A
3:00 pm61 °FSunny.7 mph59%30.33 "Hg10 mi
2:30 pm61 °FSunny.8 mph59%30.33 "Hg10 mi
2:00 pm59 °FPassing clouds.7 mph63%30.33 "HgN/A
1:30 pm57 °FSunny.7 mph67%30.33 "Hg10 mi
1:00 pm55 °FSunny.7 mph72%30.33 "Hg10 mi
12:30 pm54 °FSunny.8 mph77%30.36 "Hg10 mi
12:00 pm54 °FPassing clouds.6 mph77%30.36 "HgN/A
11:30 am54 °FPassing clouds.6 mph77%30.36 "HgN/A
11:00 am50 °FSunny.7 mph82%30.36 "Hg10 mi
10:30 am50 °FSunny.7 mph82%30.36 "Hg10 mi
10:00 am46 °FSunny.5 mph93%30.36 "Hg10 mi
Weather by CustomWeather, © 2016

See weather overviewHow to use our weather pages